Date String (YYYY-MM-DD hh:mm:ss) UTC,Instrument flags,Ambient pressure (hPa),Sample flow (lpm),Bypass flow (lpm),Sample temperature (°C),Ambient temperature (°C),ASC tube jacket temperature (°C),LED temperature (°C),Box temperature (°C),Sample RH (%),Span deviation,Mass concentration (μg/m³),Mass concentration (μg/m³),Mass concentration (μg/m³)
DateTimeUTC,F1_M11,P_M11,Q1_M11,Q2_M11,T1_M11,T2_M11,T3_M11,T4_M11,T5_M11,U1_M11,ZSPAN_M11,X0_M11,X2_M11,X1_M11
2022-01-14 06:00:00,,0822.4,4.99,0.00,26.8,26.0,00.0,35.9,28.5,09.0,0000.0,0010.44,0006.61,0006.20
2022-01-14 06:01:00,,0822.3,4.99,0.00,26.8,25.9,00.0,35.9,28.5,09.0,0000.0,0010.41,0006.50,0006.11
2022-01-14 06:02:00,,0822.2,5.02,0.00,26.8,26.0,00.0,35.9,28.5,09.0,0000.0,0010.30,0006.45,0006.07
2022-01-14 06:03:00,,0822.1,4.99,0.00,26.8,26.0,00.0,35.9,28.6,09.0,0000.0,0010.05,0006.43,0006.03
2022-01-14 06:04:00,,0822.1,5.01,0.00,26.8,26.0,00.0,35.9,28.6,09.0,0000.0,0009.67,0006.40,0006.00
2022-01-14 06:05:00,,0822.1,4.99,0.00,26.8,26.0,00.0,35.9,28.5,09.1,0000.0,0009.41,0006.35,0005.96
2022-01-14 06:06:00,,0822.1,5.01,0.00,26.7,26.0,00.0,35.9,28.5,09.2,0000.0,0009.51,0006.39,0005.98
2022-01-14 06:07:00,,0822.1,5.00,0.00,26.7,26.0,00.0,35.8,28.5,09.2,0000.0,0009.68,0006.47,0006.04
2022-01-14 06:08:00,,0822.1,5.00,0.00,26.7,26.0,00.0,35.8,28.5,10.0,0000.0,0009.76,0006.56,0006.16
2022-01-14 06:09:00,,0822.2,4.99,0.00,26.7,25.9,00.0,35.8,28.4,10.6,0000.0,0009.96,0006.74,0006.35
2022-01-14 06:10:00,,0822.2,5.01,0.00,26.7,25.9,00.0,35.8,28.5,10.4,0000.0,0010.38,0007.05,0006.63
2022-01-14 06:11:00,,0822.1,4.99,0.00,26.7,25.9,00.0,35.8,28.5,10.3,0000.0,0010.57,0007.41,0006.94
2022-01-14 06:12:00,,0822.1,5.02,0.00,26.7,26.0,00.0,35.8,28.5,10.3,0000.0,0010.60,0007.68,0007.22
2022-01-14 06:13:00,,0822.1,4.98,0.00,26.7,26.0,00.0,35.8,28.5,10.3,0000.0,0011.26,0008.01,0007.53
2022-01-14 06:14:00,,0822.1,5.01,0.00,26.7,26.0,00.0,35.8,28.5,10.3,0000.0,0011.68,0008.33,0007.83
2022-01-14 06:15:00,,0822.1,5.01,0.00,26.7,26.0,00.0,35.7,28.5,10.2,0000.0,0012.08,0008.65,0008.14
2022-01-14 06:16:00,,0822.1,5.00,0.00,26.7,26.0,00.0,35.7,28.5,10.3,0000.0,0012.85,0008.97,0008.44
2022-01-14 06:17:00,,0822.0,5.01,0.00,26.7,26.0,00.0,35.7,28.5,10.4,0000.0,0013.44,0009.28,0008.73
2022-01-14 06:18:00,,0821.9,5.00,0.00,26.7,26.0,00.0,35.7,28.5,10.4,0000.0,0013.80,0009.59,0009.00
2022-01-14 06:19:00,,0821.8,5.00,0.00,26.7,26.0,00.0,35.7,28.5,10.5,0000.0,0014.07,0009.86,0009.23
2022-01-14 06:20:00,,0821.9,5.00,0.00,26.7,26.0,00.0,35.7,28.5,10.4,0000.0,0014.29,0010.02,0009.35
2022-01-14 06:21:00,,0822.0,4.99,0.00,26.7,26.0,00.0,35.7,28.5,10.4,0000.0,0014.26,0010.06,0009.38
2022-01-14 06:22:00,,0822.0,5.00,0.00,26.7,26.0,00.0,35.7,28.5,10.4,0000.0,0014.20,0010.01,0009.35
2022-01-14 06:23:00,,0822.0,4.99,0.00,26.7,26.0,00.0,35.7,28.5,10.3,0000.0,0014.44,0010.03,0009.33
2022-01-14 06:24:00,,0822.0,5.01,0.00,26.7,26.0,00.0,35.7,28.5,10.3,0000.0,0014.09,0010.02,0009.33
2022-01-14 06:25:00,,0822.0,4.99,0.00,26.7,26.0,00.0,35.7,28.5,10.2,0000.0,0015.48,0010.00,0009.31
2022-01-14 06:26:00,,0821.8,5.02,0.00,26.7,26.0,00.0,35.7,28.5,10.2,0000.0,0015.54,0009.97,0009.29
2022-01-14 06:27:00,,0822.0,4.99,0.00,26.7,26.0,00.0,35.7,28.5,10.2,0000.0,0015.25,0009.92,0009.19
2022-01-14 06:28:00,,0822.1,5.02,0.00,26.7,26.0,00.0,35.7,28.5,10.1,0000.0,0015.12,0009.89,0009.14
2022-01-14 06:29:00,,0822.2,4.99,0.00,26.7,26.0,00.0,35.7,28.5,10.1,0000.0,0015.24,0009.79,0009.08
2022-01-14 06:30:00,,0821.8,5.00,0.00,26.7,26.0,00.0,35.7,28.5,10.1,0000.0,0015.27,0009.83,0009.10
2022-01-14 06:31:00,,0821.8,5.02,0.00,26.7,26.0,00.0,35.7,28.5,10.1,0000.0,0015.56,0009.94,0009.18
2022-01-14 06:32:00,,0822.0,5.01,0.00,26.7,26.0,00.0,35.7,28.5,10.1,0000.0,0015.80,0010.01,0009.24
2022-01-14 06:33:00,,0821.8,4.98,0.00,26.7,26.0,00.0,35.7,28.5,10.1,0000.0,0017.48,0010.14,0009.34
2022-01-14 06:34:00,,0821.9,5.01,0.00,26.7,26.0,00.0,35.7,28.5,10.1,0000.0,0017.65,0010.18,0009.40
2022-01-14 06:35:00,,0822.0,5.00,0.00,26.7,26.0,00.0,35.7,28.5,10.1,0000.0,0018.39,0010.19,0009.42
2022-01-14 06:36:00,,0822.1,5.00,0.00,26.7,26.0,00.0,35.7,28.5,10.1,0000.0,0017.02,0010.04,0009.31
2022-01-14 06:37:00,,0822.1,5.01,0.00,26.7,26.0,00.0,35.7,28.5,10.1,0000.0,0016.43,0009.90,0009.20
2022-01-14 06:38:00,,0822.1,5.00,0.00,26.7,26.0,00.0,35.7,28.5,10.1,0000.5,0016.32,0009.85,0009.17
2022-01-14 06:39:00,,0822.1,5.00,0.00,26.7,26.0,00.0,35.7,28.5,10.0,0001.9,0016.12,0009.71,0009.07
2022-01-14 06:40:00,,0821.9,4.99,0.00,26.7,26.0,00.0,35.7,28.5,10.0,0000.0,0015.78,0009.68,0009.01
2022-01-14 06:41:00,,0822.0,5.01,0.00,26.7,26.0,00.0,35.7,28.5,10.0,0000.0,0015.77,0009.64,0008.98
2022-01-14 06:42:00,,0821.8,4.98,0.00,26.7,26.0,00.0,35.7,28.5,10.1,0000.0,0015.39,0009.46,0008.86
2022-01-14 06:43:00,,0821.8,5.02,0.00,26.7,25.9,00.0,35.7,28.5,10.1,0000.0,0015.02,0009.26,0008.69
2022-01-14 06:44:00,,0821.9,4.98,0.00,26.7,25.9,00.0,35.7,28.5,10.0,0000.0,0013.80,0009.04,0008.52
2022-01-14 06:45:00,,0821.8,5.02,0.00,26.7,25.9,00.0,35.7,28.5,09.9,0000.0,0013.41,0008.84,0008.33
2022-01-14 06:46:00,,0821.8,4.99,0.00,26.6,25.9,00.0,35.7,28.4,10.0,0000.0,0012.45,0008.69,0008.21
2022-01-14 06:47:00,,0821.7,5.00,0.00,26.6,25.9,00.0,35.7,28.4,10.0,0000.0,0012.57,0008.82,0008.28
2022-01-14 06:48:00,,0821.6,5.01,0.00,26.6,25.8,00.0,35.7,28.3,10.0,0000.0,0012.67,0008.92,0008.35
2022-01-14 06:49:00,,0821.7,4.99,0.00,26.6,25.8,00.0,35.7,28.3,09.7,0000.0,0012.85,0008.86,0008.30
2022-01-14 06:50:00,,0821.7,5.01,0.00,26.6,25.8,00.0,35.7,28.3,09.4,0000.0,0012.85,0008.74,0008.20
2022-01-14 06:51:00,,0821.6,4.99,0.00,26.5,25.7,00.0,35.6,28.3,09.6,0000.0,0013.32,0008.55,0008.05
2022-01-14 06:52:00,,0821.5,5.01,0.00,26.5,25.7,00.0,35.6,28.3,09.9,0000.0,0013.27,0008.48,0007.99
2022-01-14 06:53:00,,0821.5,4.99,0.00,26.5,25.7,00.0,35.6,28.2,09.6,0000.0,0013.14,0008.38,0007.89
2022-01-14 06:54:00,,0821.4,4.99,0.00,26.5,25.7,00.0,35.6,28.2,09.1,0000.0,0012.92,0008.16,0007.68
2022-01-14 06:55:00,,0821.4,5.00,0.00,26.5,25.7,00.0,35.6,28.2,08.8,0000.0,0012.19,0007.85,0007.36
2022-01-14 06:56:00,,0821.4,5.01,0.00,26.5,25.7,00.0,35.6,28.3,09.0,0000.0,0011.80,0007.59,0007.09
2022-01-14 06:57:00,,0821.4,5.01,0.00,26.5,25.7,00.0,35.6,28.3,10.0,0000.0,0011.80,0007.49,0006.95
2022-01-14 06:58:00,,0821.4,4.99,0.00,26.5,25.7,00.0,35.5,28.3,09.7,0000.0,0011.45,0007.17,0006.69
2022-01-14 06:59:00,,0821.4,4.99,0.00,26.5,25.7,00.0,35.5,28.3,09.1,0000.0,0011.04,0006.78,0006.35
